View from above orbital plane
|
View from above satellite
|
Ground track
|
The orbit data is extracted from the following two-line orbital elements,
1 21809U 91076E 13141.66521533 0.00000200 00000-0 11455-3 0 08
2 21809 63.3750 330.8087 0621000 8.5436 351.4564 13.40729704 05
| Epoch (UTC): | 21 May 2013 15:57:54 |
| Eccentricity: | 0.0621000 |
| inclination: | 63.3750° |
| perigee height: | 642 km |
| apogee height: | 1571 km |
| right ascension of ascending node: | 330.8087° |
| argument of perigee: | 8.5436° |
| revolutions per day: | 13.40729704 |
| mean anomaly at epoch: | 351.4564° |
| orbit number at epoch: | 0 |
The dashed part of the orbit path shows where the satellite is in the earth's shadow,
|
|